Weather History for Wahpeton, ND

Change the Weather History Date:

Monday, March 19, 2012

  Actual Average (KFFM) Record (KFFM)
Temperature  
Mean Temperature 64 °F -  
Max Temperature 73 °F 37 °F 73 °F (2012)
Min Temperature 55 °F 20 °F -8 °F (1965)
Degree Days  
Heating Degree Days 1    
Growing Degree Days 14 (Base 50)    
Moisture  
Dew Point 54 °F    
Average Humidity 74    
Maximum Humidity 88    
Minimum Humidity 53    
Precipitation  
Precipitation 0.00 in - - ()
Sea Level Pressure  
Sea Level Pressure 29.50 in    
Wind  
Wind Speed 17 mph (SSE)    
Max Wind Speed 28 mph    
Max Gust Speed 33 mph    
Visibility 10 miles    
Events      
Averages and records for this station are not official NWS values.
T = Trace of Precipitation, MM = Missing Value Source: NWS Daily Summary

Daily Weather History Graph

Daily Weather History Graph

Search for Another Location

Airport:

Trip Planner

Search our weather history database for the weather conditions in past years. The results will help you decide how hot, cold, wet, or windy it might be!

Date:

Astronomy

Mar. 19, 2012 Rise Set
Actual Time 7:30 AM CDT 7:38 PM CDT
Civil Twilight 7:00 AM CDT 8:08 PM CDT
Nautical Twilight 6:25 AM CDT 8:43 PM CDT
Astronomical Twilight 5:49 AM CDT 9:19 PM CDT
Moon 5:51 AM CDT (3/19) 5:01 PM CDT (3/19)
Length of Visible Light 13h 07m
Length of Day
12h 08m
Waning Crescent, 8% of the Moon is Illuminated
Mar 19
Waning Crescent
Mar 22
New
Mar 30
First Quarter
Apr 6
Full
Apr 13
Last Quarter

Hourly Weather History & Observations

Time (CDT) Temp. Dew Point Humidity Pressure Visibility Wind Dir Wind Speed Gust Speed Precip Events Conditions
12:15 AM 60.8 °F 53.6 °F 77% 29.49 in 10.0 mi SSE 16.1 mph - N/A   Clear
12:35 AM 60.8 °F 53.6 °F 77% 29.49 in 10.0 mi SSE 16.1 mph - N/A   Clear
12:55 AM 60.8 °F 53.6 °F 77% 29.50 in 10.0 mi SSE 12.7 mph - N/A   Clear
1:15 AM 60.8 °F 53.6 °F 77% 29.50 in 10.0 mi SSE 16.1 mph - N/A   Clear
1:35 AM 60.8 °F 53.6 °F 77% 29.50 in 10.0 mi SSE 18.4 mph 23.0 mph N/A   Clear
1:55 AM 60.8 °F 53.6 °F 77% 29.51 in 10.0 mi SSE 17.3 mph 23.0 mph N/A   Clear
2:15 AM 60.8 °F 53.6 °F 77% 29.51 in 10.0 mi SSE 13.8 mph - N/A   Clear
2:55 AM 59.0 °F 53.6 °F 82% 29.51 in 10.0 mi SSE 12.7 mph - N/A   Clear
3:15 AM 59.0 °F 53.6 °F 82% 29.52 in 10.0 mi SSE 13.8 mph - N/A   Clear
3:55 AM 59.0 °F 53.6 °F 82% 29.51 in 10.0 mi SSE 16.1 mph - N/A   Clear
4:15 AM 59.0 °F 53.6 °F 82% 29.51 in 10.0 mi SSE 17.3 mph 24.2 mph N/A   Clear
4:55 AM 59.0 °F 53.6 °F 82% 29.49 in 10.0 mi SSE 18.4 mph - N/A   Clear
5:15 AM 59.0 °F 53.6 °F 82% 29.49 in 10.0 mi SSE 18.4 mph 24.2 mph N/A   Clear
5:35 AM 59.0 °F 53.6 °F 82% 29.49 in 10.0 mi SSE 19.6 mph 25.3 mph N/A   Clear
5:55 AM 59.0 °F 53.6 °F 82% 29.49 in 10.0 mi SSE 18.4 mph - N/A   Clear
6:15 AM 59.0 °F 53.6 °F 82% 29.50 in 10.0 mi SSE 16.1 mph - N/A   Clear
6:35 AM 59.0 °F 53.6 °F 82% 29.50 in 10.0 mi SSE 18.4 mph 24.2 mph N/A   Clear
7:35 AM 59.0 °F 53.6 °F 82% 29.51 in 10.0 mi SSE 19.6 mph 26.5 mph N/A   Clear
7:55 AM 59.0 °F 53.6 °F 82% 29.51 in 10.0 mi SSE 18.4 mph 26.5 mph N/A   Clear
8:35 AM 59.0 °F 55.4 °F 88% 29.50 in 10.0 mi SE 17.3 mph 26.5 mph N/A   Clear
8:55 AM 60.8 °F 55.4 °F 82% 29.50 in 10.0 mi SE 17.3 mph 24.2 mph N/A   Clear
9:15 AM 60.8 °F 55.4 °F 82% 29.52 in 10.0 mi SSE 19.6 mph 27.6 mph N/A   Clear
9:35 AM 62.6 °F 55.4 °F 77% 29.52 in 10.0 mi SSE 25.3 mph 28.8 mph N/A   Mostly Cloudy
10:15 AM 62.6 °F 55.4 °F 77% 29.52 in 10.0 mi SSE 21.9 mph 31.1 mph N/A   Overcast
10:35 AM 64.4 °F 55.4 °F 73% 29.52 in 10.0 mi SSE 27.6 mph 33.4 mph N/A   Mostly Cloudy
10:55 AM 64.4 °F 57.2 °F 77% 29.52 in 10.0 mi SSE 24.2 mph 32.2 mph N/A   Overcast
11:15 AM 66.2 °F 57.2 °F 73% 29.52 in 10.0 mi SSE 24.2 mph 33.4 mph N/A   Overcast
11:35 AM 68.0 °F 57.2 °F 68% 29.52 in 10.0 mi SSE 25.3 mph 33.4 mph N/A   Overcast
11:55 AM 68.0 °F 59.0 °F 73% 29.52 in 10.0 mi SSE 21.9 mph 31.1 mph N/A   Overcast
12:15 PM 68.0 °F 59.0 °F 73% 29.51 in 10.0 mi SSE 19.6 mph 29.9 mph N/A   Overcast
12:35 PM 69.8 °F 59.0 °F 68% 29.50 in 10.0 mi SSE 21.9 mph 31.1 mph N/A   Overcast
12:55 PM 69.8 °F 59.0 °F 68% 29.50 in 10.0 mi SSE 25.3 mph 31.1 mph N/A   Overcast
1:15 PM 71.6 °F 57.2 °F 60% 29.49 in 10.0 mi South 23.0 mph 32.2 mph N/A   Overcast
1:35 PM 69.8 °F 57.2 °F 64% 29.50 in 10.0 mi South 26.5 mph 33.4 mph N/A   Overcast
1:55 PM 69.8 °F 57.2 °F 64% 29.49 in 10.0 mi South 21.9 mph 26.5 mph N/A   Overcast
2:15 PM 73.4 °F 57.2 °F 57% 29.49 in 10.0 mi South 20.7 mph 27.6 mph N/A   Mostly Cloudy
2:35 PM 73.4 °F 55.4 °F 53% 29.47 in 10.0 mi South 20.7 mph 31.1 mph N/A   Mostly Cloudy
2:55 PM 73.4 °F 55.4 °F 53% 29.46 in 10.0 mi SSE 23.0 mph 31.1 mph N/A   Scattered Clouds
3:15 PM 71.6 °F 55.4 °F 57% 29.45 in 10.0 mi South 19.6 mph 27.6 mph N/A   Scattered Clouds
3:35 PM 64.4 °F 55.4 °F 73% 29.45 in 3.0 mi South 17.3 mph 26.5 mph N/A   Mostly Cloudy
3:55 PM 68.0 °F 59.0 °F 73% 29.45 in 10.0 mi SSE 19.6 mph 26.5 mph N/A   Scattered Clouds
4:15 PM 68.0 °F 59.0 °F 73% 29.45 in 10.0 mi SSE 13.8 mph - N/A   Scattered Clouds
4:35 PM 71.6 °F 60.8 °F 69% 29.46 in 10.0 mi SSE 16.1 mph - N/A   Clear
4:55 PM 69.8 °F 60.8 °F 73% 29.45 in 10.0 mi SSE 17.3 mph 25.3 mph N/A   Clear
5:15 PM 68.0 °F 60.8 °F 78% 29.45 in 10.0 mi South 18.4 mph - N/A   Scattered Clouds
5:35 PM 68.0 °F 59.0 °F 73% 29.46 in 10.0 mi South 17.3 mph 20.7 mph N/A   Scattered Clouds
5:55 PM 64.4 °F 50.0 °F 59% 29.49 in 10.0 mi WSW 13.8 mph 23.0 mph N/A   Mostly Cloudy
6:15 PM 64.4 °F 48.2 °F 56% 29.49 in 10.0 mi West 10.4 mph - N/A   Scattered Clouds
6:35 PM 62.6 °F 46.4 °F 55% 29.49 in 10.0 mi WSW 5.8 mph - N/A   Scattered Clouds
6:55 PM 60.8 °F 46.4 °F 59% 29.49 in 10.0 mi WSW 5.8 mph - N/A   Mostly Cloudy
7:15 PM 60.8 °F 46.4 °F 59% 29.49 in 10.0 mi Calm Calm - N/A   Scattered Clouds
7:35 PM 60.8 °F 46.4 °F 59% 29.50 in 10.0 mi SE 4.6 mph - N/A   Scattered Clouds
8:15 PM 59.0 °F 50.0 °F 72% 29.51 in 10.0 mi SE 4.6 mph - N/A   Mostly Cloudy
8:35 PM 59.0 °F 51.8 °F 77% 29.50 in 10.0 mi SSE 9.2 mph - N/A   Scattered Clouds
8:55 PM 59.0 °F 51.8 °F 77% 29.52 in 10.0 mi SSE 9.2 mph - N/A   Scattered Clouds
9:15 PM 57.2 °F 51.8 °F 82% 29.53 in 10.0 mi South 10.4 mph - N/A   Mostly Cloudy
9:35 PM 57.2 °F 51.8 °F 82% 29.54 in 10.0 mi SSE 8.1 mph - N/A   Overcast
9:55 PM 55.4 °F 51.8 °F 88% 29.54 in 10.0 mi SSE 10.4 mph - N/A   Overcast
10:15 PM 55.4 °F 51.8 °F 88% 29.55 in 10.0 mi SSE 8.1 mph - N/A   Overcast
10:35 PM 55.4 °F 51.8 °F 88% 29.56 in 10.0 mi South 8.1 mph - N/A   Overcast
10:55 PM 55.4 °F 51.8 °F 88% 29.56 in 10.0 mi SSE 8.1 mph - N/A   Overcast
11:15 PM 55.4 °F 51.8 °F 88% 29.57 in 10.0 mi SSE 8.1 mph - N/A   Overcast